EHI
0 0 0 0 0 0 0 0 0 1 1 3 10 20 26 31 37 45 50 53 58 63 63 64 61 51 39 35 38 39 37 35 31 30 27 23 23 24 27 29 28 27 25 23
0 0 0 0 0 0 0 0 0 0 1 5 13 21 27 31 37 46 54 58 62 65 68 68 64 56 47 43 43 43 40 36 34 33 31 30 29 31 32 33 34 32 28 25
0 0 0 0 0 0 0 0 0 0 2 7 16 25 33 37 42 50 58 65 68 68 71 71 67 63 58 53 50 46 41 36 33 33 33 33 34 36 37 37 37 35 30 26
0 0 0 0 0 0 0 0 1 3 6 12 22 33 42 48 52 56 60 65 67 68 70 71 67 64 61 57 53 48 40 34 32 32 32 33 34 37 39 38 36 35 33 30
0 0 0 0 0 0 0 0 3 9 16 22 29 38 45 51 54 55 56 59 61 62 66 67 63 60 57 54 53 48 40 35 33 33 33 34 33 34 38 38 37 35 34 34
0 0 0 0 0 0 0 3 9 19 27 30 32 36 39 42 46 47 47 50 52 54 58 60 58 55 53 52 50 46 41 38 36 36 36 35 35 34 36 38 36 32 30 31
0 0 0 0 0 1 3 9 18 25 30 30 29 32 32 31 34 36 37 38 41 45 48 51 52 50 49 48 46 42 40 40 38 35 33 35 37 36 35 34 31 27 24 23
0 1 1 1 1 3 6 12 18 22 24 24 23 24 22 20 22 24 26 26 29 33 36 40 43 42 42 41 39 37 36 36 33 28 26 28 32 31 28 26 23 21 18 16
2 3 4 3 3 3 5 8 11 13 14 15 15 14 14 14 14 15 16 17 18 21 23 26 30 31 32 32 31 29 28 27 24 20 17 19 20 20 17 15 14 13 11 10
4 4 5 5 5 4 3 4 7 7 6 7 8 9 12 12 12 11 11 12 13 13 14 16 18 20 22 23 22 21 20 19 18 14 11 9 9 9 7 6 5 5 5 4
2 3 3 5 6 5 3 4 5 5 3 3 4 7 10 10 9 8 9 9 10 11 11 12 13 14 14 15 15 14 14 13 11 8 5 3 2 2 2 1 1 1 1 1
0 1 1 2 3 3 2 4 4 4 2 1 2 5 6 5 4 4 5 5 6 8 10 10 10 10 10 11 11 9 8 6 4 2 1 0 0 0 0 0 0 0 0 0
0 0 0 1 1 1 1 3 3 2 1 0 1 3 2 1 1 1 1 1 2 4 7 8 7 6 6 7 7 5 3 2 1 0 0 0 0 0 0 0 0 0 0 0
0 0 1 1 0 0 1 1 1 0 0 0 1 1 1 0 0 0 0 0 0 1 3 4 3 2 2 2 2 1 0 0 0 0 0 0 0 0 0 0 0 0 0 0
0 0 1 1 0 0 0 0 0 0 0 0 0 0 0 0 0 0 0 0 0 0 1 1 1 0 0 0 0 0 0 0 0 0 0 0 0 0 0 0 0 0 0 0
0 0 0 0 0 0 0 0 0 0 0 0 0 0 0 0 0 0 0 0 0 0 0 0 0 0 0 0 0 0 0 0 0 0 0 0 0 0 0 0 0 0 0 0
0 0 0 0 0 0 0 0 0 0 0 0 0 0 0 0 0 0 0 0 0 0 0 0 0 0 0 0 0 0 0 0 0 0 0 0 0 0 0 0 0 0 0 0
0 0 0 0 0 0 0 0 0 0 0 0 0 0 0 0 0 0 0 0 0 0 0 0 0 0 0 0 0 0 0 0 0 0 0 0 0 0 0 0 0 0 0 0
0 0 1 1 0 0 0 0 0 0 0 0 0 0 0 0 0 0 0 0 0 0 0 0 0 0 0 0 0 0 0 0 0 0 0 0 0 0 0 0 0 0 0 0
0 1 1 1 0 0 0 0 0 0 0 0 0 0 0 0 0 0 0 0 0 0 0 0 0 0 0 0 0 0 0 0 0 0 0 0 0 0 0 0 0 0 0 0
1 1 1 1 0 0 0 0 0 0 0 0 0 0 0 0 0 0 0 0 0 0 0 0 0 0 0 0 0 0 0 0 0 0 0 0 0 0 0 0 0 0 0 0
1 1 0 0 0 1 1 1 0 0 0 0 0 0 0 0 0 0 0 0 0 0 0 0 0 0 0 0 0 0 0 0 0 0 0 0 0 0 0 0 0 0 0 0
1 0 0 0 0 1 2 2 1 0 0 0 0 0 0 0 0 0 0 0 0 0 0 0 0 0 0 0 0 0 0 0 0 0 0 0 0 0 0 0 0 0 0 0
0 0 0 0 1 2 3 2 1 0 0 0 0 0 0 0 0 0 0 0 0 0 0 0 0 0 0 0 0 0 0 0 0 0 0 0 0 0 0 0 0 0 0 0
0 0 0 0 1 2 2 1 0 0 0 0 0 0 0 0 0 0 0 0 0 0 0 0 0 0 0 0 0 0 0 0 0 0 0 0 0 0 0 0 0 0 0 0
0 0 0 0 0 1 1 0 0 0 0 0 0 0 0 0 0 0 0 0 0 0 0 0 0 0 0 0 0 0 0 0 0 0 0 0 0 0 0 0 0 0 0 0
0 0 0 0 0 0 0 0 0 0 0 0 0 0 0 0 0 0 0 0 0 0 0 0 0 0 0 0 0 0 0 0 0 0 0 0 0 0 0 0 0 0 0 0
Wind_Speed
12 8 7 9 12 14 13 12 12 9 5 4 0 1 2 4 7 9 10 10 10 9 9 9 9 9 9 9 8 9 10 10 9 8 7 7 7 6 6 6 7 5 5 5
11 11 10 11 12 14 15 14 12 10 7 1 1 1 1 3 6 8 9 9 8 8 8 8 8 8 8 8 8 8 8 9 9 8 8 7 7 7 6 6 5 5 5 4
12 13 11 14 12 13 12 13 12 10 5 0 2 2 3 4 4 6 8 8 8 7 8 7 7 6 7 7 7 7 7 7 7 7 7 7 8 7 6 6 5 4 4 4
11 12 15 7 6 8 9 10 8 7 3 1 2 3 4 4 6 6 7 6 7 6 7 7 6 7 6 7 7 6 6 6 6 6 6 6 5 5 5 4 4 4 4 4
9 13 14 8 5 6 8 8 6 6 4 4 5 5 7 8 8 9 8 7 6 6 6 6 6 6 6 6 6 6 6 4 4 4 5 5 4 3 3 3 3 3 3 3
9 11 11 4 6 6 6 5 9 8 6 4 2 0 4 7 8 9 10 8 7 7 7 6 5 6 7 6 6 5 5 4 4 4 4 5 4 3 3 3 3 3 3 2
12 12 7 5 8 7 5 4 11 8 6 3 3 4 7 8 9 10 9 9 8 9 8 7 6 7 8 8 7 6 6 7 6 5 5 5 4 4 4 4 4 4 4 4
8 11 5 9 7 5 5 7 9 8 7 6 7 8 9 10 10 10 9 10 10 10 10 8 8 9 10 9 8 8 9 9 8 7 6 6 6 5 4 4 5 4 4 4
2 1 4 6 5 5 5 6 6 5 6 7 7 8 9 10 10 11 10 10 10 11 11 10 10 10 11 9 8 9 10 10 9 9 8 7 7 6 5 4 4 4 4 4
2 1 4 7 7 8 7 5 4 5 6 8 8 8 10 9 10 11 11 10 10 11 12 11 10 11 10 9 9 10 10 9 9 9 9 9 8 7 7 6 6 5 5 5
3 3 4 5 7 7 7 6 6 7 7 8 9 10 10 11 11 10 10 9 10 10 11 11 10 10 9 8 9 9 9 8 9 9 9 9 10 9 9 8 6 6 6 6
2 3 3 3 5 6 6 5 6 8 8 8 9 12 13 11 10 10 10 10 11 11 11 11 11 10 9 9 8 8 7 7 7 7 6 7 8 9 14 11 12 13 11 8
3 3 3 3 4 6 6 6 8 9 10 10 11 13 13 12 11 11 11 11 11 11 11 11 11 10 9 8 8 8 7 6 5 5 5 6 6 6 6 7 10 11 10 10
3 3 4 3 4 6 7 9 11 12 13 13 13 13 13 13 12 12 11 11 11 11 11 11 11 10 8 8 7 7 7 7 5 4 4 4 4 5 5 5 5 5 5 5
3 4 5 6 8 9 10 11 13 13 13 13 12 12 12 12 12 11 10 10 10 11 11 10 10 9 7 7 7 7 6 5 4 4 4 4 4 4 5 5 5 5 4 3
5 6 8 10 11 11 12 13 13 12 12 12 11 12 12 12 12 11 10 10 10 10 9 9 9 7 6 6 5 5 5 6 4 4 5 5 5 5 5 5 6 6 5 5
7 8 10 11 12 11 11 12 12 12 12 12 12 12 12 12 11 10 10 10 9 9 8 7 7 6 6 5 4 3 4 4 4 5 6 6 5 5 5 5 6 6 6 5
8 9 11 12 11 12 12 12 12 12 12 12 12 11 11 11 10 10 9 9 9 9 8 7 6 6 6 7 5 3 3 4 5 6 6 5 5 5 5 5 6 5 4 5
11 12 12 12 12 12 12 12 12 11 10 10 11 11 10 10 9 9 8 8 8 8 7 6 5 5 6 7 6 2 3 5 6 6 5 5 4 6 6 6 6 6 6 5
12 12 12 12 12 12 13 12 12 11 10 11 11 11 10 9 8 8 8 7 6 6 5 5 5 5 6 6 7 3 5 6 6 6 5 6 6 6 6 6 6 6 6 6
12 13 12 12 12 12 12 12 11 11 10 10 10 10 9 8 7 7 7 7 7 5 5 5 5 5 6 6 5 4 6 6 6 6 6 6 7 7 7 6 6 6 6 6
11 11 11 11 11 10 10 10 11 11 10 9 10 10 9 8 8 7 8 6 6 5 3 5 6 7 9 7 4 5 6 6 6 6 6 6 6 6 6 6 5 5 6 6
10 10 10 10 10 10 10 10 10 10 9 9 8 8 7 6 5 6 6 6 6 6 6 7 7 9 10 5 5 6 6 6 6 6 6 6 5 5 5 5 5 5 5 5
9 9 9 9 9 10 10 10 9 8 9 8 8 7 6 5 6 7 8 8 8 7 7 6 6 7 6 4 5 5 5 5 5 5 5 5 5 5 5 5 5 5 5 6
8 8 8 8 8 8 9 9 9 8 8 6 7 7 5 5 6 6 7 8 8 6 7 5 4 4 3 5 5 5 6 6 6 5 4 4 5 5 5 5 5 5 5 5
7 7 6 6 7 6 6 6 5 5 6 6 5 5 5 6 7 6 6 7 8 6 5 4 4 2 3 4 4 4 4 4 3 4 5 4 5 5 5 4 5 4 4 4
8 7 5 6 5 5 5 6 6 5 5 5 5 5 5 5 6 6 6 6 5 4 4 3 3 3 3 3 4 4 4 4 4 4 4 4 4 4 4 4 4 4 4 5
Wind_Direction
270 278 283 283 279 278 277 272 268 268 260 281 266 165 150 144 144 140 140 144 145 152 151 150 150 153 160 165 166 167 170 171 175 179 180 180 182 186 186 186 196 192 189 191
273 266 261 263 259 266 270 274 276 279 279 289 71 77 155 166 156 150 146 146 144 144 142 145 149 153 155 160 164 163 171 175 173 176 179 183 186 189 189 191 195 188 191 187
271 272 261 253 253 257 259 269 273 275 289 190 101 143 174 151 141 136 133 132 135 145 142 142 149 149 153 158 159 162 170 174 171 176 181 185 190 187 188 189 190 186 185 181
266 270 265 269 283 285 273 272 291 302 317 337 99 85 70 91 117 110 108 114 121 129 130 138 144 148 149 152 152 155 162 174 170 173 180 180 185 186 184 180 181 183 183 182
260 261 261 264 296 306 299 292 342 338 347 37 61 79 70 67 81 85 82 88 95 107 121 129 137 140 137 139 145 153 159 160 158 168 169 164 170 170 165 167 170 168 157 160
252 261 266 317 357 347 310 280 10 12 23 31 15 52 86 71 74 80 80 71 74 88 90 91 102 126 123 117 115 118 121 123 127 134 139 141 144 144 145 144 142 140 114 102
245 256 264 345 344 328 285 350 2 10 14 2 356 33 101 93 81 75 78 83 79 80 77 76 82 95 100 97 92 94 97 94 92 97 106 108 110 109 112 114 116 118 111 100
245 252 250 18 12 13 1 344 351 12 26 47 69 92 100 96 89 82 78 80 79 77 71 67 74 83 85 81 80 82 83 81 78 74 78 85 89 92 101 113 116 115 110 101
265 292 51 36 29 7 348 342 356 37 53 86 96 101 101 97 93 86 77 76 75 78 73 65 66 75 81 77 80 84 83 79 75 71 66 64 70 75 77 75 82 89 92 89
272 297 30 29 20 10 4 10 26 69 82 100 105 105 104 97 92 89 83 79 80 81 78 72 69 73 77 77 80 84 85 83 80 75 70 61 54 55 58 52 54 60 68 72
269 300 344 23 21 19 28 38 59 83 91 104 109 108 105 101 94 90 86 83 82 82 84 80 76 74 74 78 82 83 84 86 87 82 77 71 63 50 57 51 55 63 61 61
310 15 348 10 22 30 41 56 84 99 96 99 105 108 103 98 95 93 89 87 84 82 83 81 79 75 71 72 77 81 84 81 83 89 91 93 92 79 55 62 65 68 68 74
18 21 54 61 42 51 65 79 93 102 105 103 101 104 103 101 97 96 93 90 87 86 86 84 79 73 66 63 66 71 77 76 79 87 92 97 103 103 97 74 63 63 67 71
70 74 86 82 83 84 90 93 94 95 97 99 101 101 101 101 98 95 92 92 91 89 86 83 80 74 69 64 62 65 73 73 69 75 80 86 93 103 111 116 112 96 77 73
69 85 108 113 106 102 103 102 100 98 100 101 102 103 103 102 98 95 93 93 90 87 84 82 78 70 62 63 61 59 63 62 61 69 73 73 71 74 79 84 90 99 96 72
97 102 113 118 116 115 113 108 105 105 106 107 106 105 102 99 96 92 87 86 87 85 82 80 77 75 72 70 72 80 74 59 50 64 69 67 66 67 67 74 78 76 69 49
128 128 124 120 118 118 113 110 111 112 109 106 103 104 104 103 100 96 93 90 88 86 81 76 71 65 62 51 35 79 95 90 72 58 61 56 53 56 59 63 70 73 72 53
123 121 121 120 119 117 114 113 113 112 111 112 113 110 108 107 105 104 104 101 94 85 76 71 64 61 56 39 14 25 62 72 69 66 63 54 48 57 62 65 68 71 73 71
119 119 120 121 120 118 118 118 118 118 118 117 112 107 104 103 104 104 100 100 96 88 74 65 55 59 59 36 359 25 60 75 78 75 73 71 60 57 54 54 54 50 46 48
122 123 121 121 122 123 124 127 126 123 121 119 116 115 113 111 110 110 105 92 84 87 84 63 59 56 51 26 351 27 56 64 71 72 67 61 58 57 55 52 52 47 44 43
122 121 122 124 122 119 121 123 123 121 119 119 119 120 118 118 120 118 111 102 87 71 79 80 59 47 36 2 343 45 59 61 63 65 65 63 60 56 54 51 48 46 45 42
117 119 120 118 116 118 121 123 121 120 120 122 123 122 122 121 116 104 92 95 95 66 62 72 64 43 11 354 40 59 62 62 64 66 66 63 63 64 60 53 51 48 48 45
107 108 109 110 110 111 112 112 114 115 116 116 117 117 115 109 111 113 107 97 94 74 66 66 51 30 2 17 54 64 63 64 67 71 73 69 66 64 63 57 54 53 51 44
101 104 108 110 109 107 105 103 102 105 108 108 111 112 112 108 101 99 102 96 86 89 84 75 46 21 2 46 60 66 66 65 67 68 73 78 76 72 67 60 55 56 53 47
109 112 111 112 112 109 108 110 111 114 112 106 107 107 101 99 103 105 108 112 122 113 105 95 55 14 33 62 68 68 63 56 50 50 65 63 66 70 65 59 51 47 46 43
101 99 96 96 100 110 118 118 117 115 113 110 106 104 103 104 109 113 118 121 115 111 113 123 121 113 83 79 77 80 88 99 92 75 65 63 66 70 67 58 53 45 44 42
107 106 106 104 104 101 103 104 104 104 104 108 109 111 113 116 116 118 121 123 126 121 113 110 101 91 88 88 86 83 81 79 75 72 72 67 65 68 70 62 52 46 36 44